User: anonymous   Login
Location: Valley View Observatory
(41.0081°N, 76.5874°W)
Time: 17:36:57
(UTC-05:00)
Language:

Cosmos 2237 Rocket - Orbit

View from above orbital plane
View from above orbital plane
View from above satellite
View from above satellite

Ground track
Ground track

The orbit data is extracted from the following two-line orbital elements,

1 22566U 93016B   15061.88006922 -.00000172  00000-0 -64173-4 0  9995
2 22566 071.0084 024.3965 0011750 317.5746 042.4467 14.14885974132834
Epoch (UTC): 02 March 2015 21:07:17
Eccentricity: 0.0011750
inclination: 71.0084°
perigee height: 834 km
apogee height: 851 km
right ascension of ascending node: 24.3965°
argument of perigee: 317.5746°
revolutions per day: 14.14885974
mean anomaly at epoch: 42.4467°
orbit number at epoch: 13283

The dashed part of the orbit path shows where the satellite is in the earth's shadow,  

DLR